sat.trackr.live / text

‹ back to catalog

STARLINK-30070

NORAD 56707 · 2023-067V

PAYLOAD ACTIVE UNKNOWN

§ Identity

Operator
Country
US
Launch date
2023-05-19
Launch site
AFETR
Launch vehicle
Mass (kg)
RCS (m²)

Purposes: comms

External: N2YO · Heavens-Above · Gunter

§ Orbital elements

Epoch: 2026-05-24T15:09:55.480896Z

Period
94.27 min
Inclination
43.0024°
Eccentricity
0.0001684
Mean motion
15.27575897 rev/d
Perigee alt
481.9 km
Apogee alt
484.2 km
Semi-major
6,861.2 km
B*
9.2249e-6
RAAN
202.2449°
Arg perigee
257.1426°
Mean anomaly
102.9238°
Rev number
16,731

§ Raw data

STARLINK-300701 56707U 23067V   26144.63189214 -.00000008  00000+0  92249-5 0  99932 56707  43.0024 202.2449 0001684 257.1426 102.9238 15.27575897167318

JSON: /api/v1/satellites/56707 · /tle

For live sub-satellite position, see the globe view (requires WebGL).

§ Visibility from observer

Set your observer location to see the next 7 days of passes ≥ 10°. The values pass through the URL so the page stays shareable.

No JS? Fill the form by hand. The geolocation button needs JavaScript.